Вернуться в каталог

STARLINK-32242

АктивенСвязьVLEO
NORAD 60429·PAYLOAD·🇺🇸 United States

Запущен Aug 12, 2024 с Cape Canaveral Space Force Station

Loading…

Ближайшие Пролёты (ближайшие 24 часа)

TLE

СвежийSource: CelesTrak SupGP

Эпоха: Sep 15, 2026, 03:09 UTC

1 60429C 24144E   26258.13173611 -.00016564  00000+0 -48953-3 0  2585
2 60429  53.1588  54.8492 0000811  73.0024  35.1199 15.34390921    17

Отслеживайте STARLINK-32242 в реальном времени с AllMySat

Download on the App Store